Weather History for Marion, OH

Change the Weather History Date:

Tuesday, April 2, 2013

  Actual Average (KDLZ) Record (KDLZ)
Temperature  
Mean Temperature 30 °F -  
Max Temperature 41 °F 57 °F 83 °F (1963)
Min Temperature 21 °F 34 °F 16 °F (1964)
Degree Days  
Heating Degree Days 35    
Moisture  
Dew Point 14 °F    
Average Humidity 52    
Maximum Humidity 74    
Minimum Humidity 36    
Precipitation  
Precipitation 0.00 in - - ()
Sea Level Pressure  
Sea Level Pressure 30.21 in    
Wind  
Wind Speed 8 mph (WNW)    
Max Wind Speed 16 mph    
Max Gust Speed 22 mph    
Visibility 10 miles    
Events      
Averages and records for this station are not official NWS values.
T = Trace of Precipitation, MM = Missing Value Source: NWS Daily Summary

Daily Weather History Graph

Daily Weather History Graph

Search for Another Location

Airport:

Trip Planner

Search our weather history database for the weather conditions in past years. The results will help you decide how hot, cold, wet, or windy it might be!

Date:

Astronomy

Apr. 02, 2013 Rise Set
Actual Time 7:13 AM EDT 7:58 PM EDT
Civil Twilight 6:46 AM EDT 8:25 PM EDT
Nautical Twilight 6:13 AM EDT 8:58 PM EDT
Astronomical Twilight 5:39 AM EDT 9:32 PM EDT
Moon 2:03 AM EDT (4/2) 12:02 PM EDT (4/2)
Length of Visible Light 13h 39m
Length of Day
12h 44m
Waning Gibbous, 56% of the Moon is Illuminated
Apr 2
Waning Gibbous
Apr 3
Last Quarter
Apr 10
New
Apr 18
First Quarter
Apr 25
Full

Hourly Weather History & Observations

Time (EDT) Temp. Windchill Dew Point Humidity Pressure Visibility Wind Dir Wind Speed Gust Speed Precip Events Conditions
12:53 AM 27.0 °F 19.5 °F 12.9 °F 56% 30.15 in 10.0 mi NNW 6.9 mph - N/A   Clear
1:53 AM 24.1 °F 19.7 °F 14.0 °F 65% 30.15 in 10.0 mi WNW 3.5 mph - N/A   Scattered Clouds
2:53 AM 23.0 °F 17.0 °F 14.0 °F 68% 30.15 in 10.0 mi WNW 4.6 mph - N/A   Clear
3:53 AM 21.9 °F 15.7 °F 12.9 °F 68% 30.15 in 10.0 mi NW 4.6 mph - N/A   Clear
4:53 AM 21.9 °F 15.7 °F 12.9 °F 68% 30.16 in 10.0 mi WNW 4.6 mph - N/A   Clear
5:53 AM 21.9 °F 14.5 °F 12.9 °F 68% 30.17 in 10.0 mi WNW 5.8 mph - N/A   Clear
6:53 AM 21.0 °F 14.6 °F 14.0 °F 74% 30.19 in 10.0 mi West 4.6 mph - N/A   Clear
7:53 AM 23.0 °F 17.0 °F 15.1 °F 72% 30.22 in 10.0 mi WSW 4.6 mph - N/A   Clear
8:53 AM 27.0 °F 18.7 °F 16.0 °F 63% 30.23 in 10.0 mi West 8.1 mph - N/A   Clear
9:53 AM 30.9 °F 21.2 °F 17.1 °F 57% 30.24 in 10.0 mi West 12.7 mph - N/A   Clear
10:53 AM 32.0 °F 23.0 °F 14.0 °F 48% 30.25 in 10.0 mi WNW 11.5 mph 20.7 mph N/A   Overcast
11:53 AM 35.1 °F 25.2 °F 15.1 °F 44% 30.26 in - NW 16.1 mph 20.7 mph N/A   Overcast
12:53 PM 36.0 °F 28.0 °F 14.0 °F 41% 30.25 in 10.0 mi NW 11.5 mph - N/A   Overcast
1:53 PM 36.0 °F 26.7 °F 12.9 °F 39% 30.23 in 10.0 mi West 15.0 mph 18.4 mph N/A   Overcast
2:53 PM 39.9 °F 31.4 °F 16.0 °F 38% 30.22 in 10.0 mi WNW 16.1 mph 21.9 mph N/A   Overcast
3:53 PM 37.9 °F 31.5 °F 12.9 °F 36% 30.21 in 10.0 mi WNW 9.2 mph 20.7 mph N/A   Mostly Cloudy
4:53 PM 37.9 °F 29.2 °F 14.0 °F 38% 30.20 in 10.0 mi WNW 15.0 mph - N/A   Overcast
5:53 PM 39.9 °F 32.5 °F 15.1 °F 36% 30.21 in 10.0 mi WNW 12.7 mph - N/A   Overcast
6:53 PM 39.0 °F 31.0 °F 16.0 °F 39% 30.21 in 10.0 mi WNW 13.8 mph 17.3 mph N/A   Scattered Clouds
7:53 PM 37.0 °F 30.4 °F 14.0 °F 39% 30.22 in 10.0 mi West 9.2 mph - N/A   Mostly Cloudy
8:53 PM 35.1 °F 30.1 °F 16.0 °F 46% 30.22 in 10.0 mi West 5.8 mph - N/A   Overcast
9:53 PM 32.0 °F 25.6 °F 14.0 °F 48% 30.25 in 10.0 mi NW 6.9 mph - N/A   Clear
10:53 PM 30.9 °F 23.5 °F 12.9 °F 47% 30.27 in 10.0 mi NW 8.1 mph - N/A   Clear
11:53 PM 30.0 °F 23.2 °F 12.0 °F 47% 30.28 in 10.0 mi NW 6.9 mph - N/A   Clear